Searsport Weather Center

Moon Phase Calendar



Online Cameras

 


      

Current Conditions in Belfast
1/29/2023 6:42:43 AM

25°F
Feels Like 25
Clouds
Humidity
86%
Pressure
30.39"
Wind
2 mph (NW)
Dew Point
22°F
UV Index
0/10 (Low)
Visibility
6 mi

Hourly Forecast

Date & Time Sun, Jan 29
6:00 AM
Sun, Jan 29
7:00 AM
Sun, Jan 29
8:00 AM
Sun, Jan 29
9:00 AM
Sun, Jan 29
10:00 AM
Sun, Jan 29
11:00 AM
Sun, Jan 29
12:00 PM
Sun, Jan 29
1:00 PM
Sun, Jan 29
2:00 PM
Sun, Jan 29
3:00 PM
Sun, Jan 29
4:00 PM
Sun, Jan 29
5:00 PM
Sun, Jan 29
6:00 PM
Sun, Jan 29
7:00 PM
Sun, Jan 29
8:00 PM
Sun, Jan 29
9:00 PM
Sun, Jan 29
10:00 PM
Sun, Jan 29
11:00 PM
Mon, Jan 30
12:00 AM
Mon, Jan 30
1:00 AM
Mon, Jan 30
2:00 AM
Mon, Jan 30
3:00 AM
Mon, Jan 30
4:00 AM
Mon, Jan 30
5:00 AM
Mon, Jan 30
6:00 AM
Mon, Jan 30
7:00 AM
Mon, Jan 30
8:00 AM
Mon, Jan 30
9:00 AM
Mon, Jan 30
10:00 AM
Mon, Jan 30
11:00 AM
Mon, Jan 30
12:00 PM
Mon, Jan 30
1:00 PM
Mon, Jan 30
2:00 PM
Mon, Jan 30
3:00 PM
Mon, Jan 30
4:00 PM
Mon, Jan 30
5:00 PM
Mon, Jan 30
6:00 PM
Mon, Jan 30
7:00 PM
Mon, Jan 30
8:00 PM
Mon, Jan 30
9:00 PM
Mon, Jan 30
10:00 PM
Mon, Jan 30
11:00 PM
Tue, Jan 31
12:00 AM
Tue, Jan 31
1:00 AM
Tue, Jan 31
2:00 AM
Tue, Jan 31
3:00 AM
Tue, Jan 31
4:00 AM
Tue, Jan 31
5:00 AM
Condition
Clouds

Clouds

Clouds

Clouds

Clouds

Clouds

Clouds

Clouds

Clouds

Clouds

Rain

Rain

Clouds

Clouds

Clouds

Clouds

Clouds

Clouds

Clouds

Clouds

Clouds

Clouds

Clouds

Clouds

Clouds

Clouds

Clouds

Clouds

Clouds

Clouds

Clouds

Clouds

Clouds

Clouds

Clouds

Clouds

Snow

Snow

Snow

Snow

Clouds

Clouds

Clouds

Clouds

Clouds

Clouds

Clouds

Clouds
Temperature 26°F25°F26°F28°F31°F34°F39°F40°F39°F41°F42°F43°F45°F45°F44°F43°F41°F39°F39°F38°F37°F35°F34°F35°F33°F29°F27°F28°F29°F30°F31°F32°F32°F32°F32°F30°F29°F29°F29°F29°F28°F27°F26°F25°F24°F24°F24°F23°F
Feels Like 22°F22°F21°F22°F23°F27°F33°F34°F34°F35°F35°F35°F37°F37°F37°F36°F34°F33°F33°F33°F31°F31°F30°F29°F25°F20°F18°F20°F23°F25°F27°F29°F29°F32°F32°F30°F26°F25°F24°F22°F21°F19°F19°F18°F18°F17°F16°F16°F
Cloudiness 97%97%98%98%99%99%100%100%100%100%100%100%100%100%98%99%99%94%95%96%82%88%83%84%87%86%92%96%97%98%96%96%100%100%99%100%100%100%100%100%100%100%99%88%26%23%34%50%
Visibility 6 mi6 mi6 mi6 mi6 mi6 mi6 mi6 mi6 mi6 mi6 mi6 mi6 mi6 mi6 mi6 mi6 mi6 mi6 mi6 mi6 mi6 mi6 mi6 mi6 mi6 mi6 mi6 mi6 mi6 mi6 mi6 mi6 mi6 mi6 mi1 mi0 mi0 mi0 mi2 mi6 mi6 mi6 mi6 mi6 mi6 mi6 mi6 mi
Precipitation 0%0%0%0%0%0%0%0%41%45%61%70%70%70%6%2%0%0%0%0%0%0%0%0%0%0%0%0%0%0%0%0%0%0%0%2%27%83%89%89%72%61%54%49%0%0%0%0%
Humidity 87%86%84%81%78%77%76%75%82%89%90%89%82%85%81%81%85%87%90%92%94%95%97%94%84%80%79%76%74%73%71%71%72%74%79%91%97%96%96%93%91%91%90%90%88%86%83%79%
Dew Point 23°F22°F23°F24°F25°F28°F32°F32°F34°F37°F39°F39°F39°F40°F38°F37°F36°F35°F36°F35°F35°F33°F33°F33°F28°F23°F21°F20°F21°F22°F23°F24°F24°F24°F25°F27°F28°F28°F27°F26°F25°F24°F23°F22°F21°F20°F18°F17°F
Pressure 30.39"30.39"30.39"30.39"30.36"30.33"30.24"30.18"30.15"30.12"30.09"30.06"30.03"30"30"30"30"30"29.97"30"30.03"30.03"30.03"30.06"30.09"30.12"30.12"30.15"30.15"30.12"30.09"30.06"30.03"30.03"30.03"30.03"30.03"30.03"30.03"30.03"30.03"30.03"30"30.03"30.03"30.06"30.06"30.06"
Wind Speed 3 mph3.1 mph4.2 mph5.8 mph7.7 mph9 mph8.7 mph8.5 mph8.5 mph10 mph12.6 mph15.8 mph17.2 mph16.9 mph15.7 mph14.4 mph13 mph11.1 mph7.7 mph7.5 mph7.4 mph4.6 mph5 mph7.2 mph9.4 mph9.7 mph9 mph7.6 mph6 mph4.8 mph4.1 mph3.6 mph3 mph2.7 mph1.4 mph2 mph3.2 mph4.2 mph4.9 mph6.1 mph6.4 mph6.7 mph6.4 mph6.2 mph5.4 mph5.9 mph6.5 mph5.7 mph
Wind
Direction
69°
ENE
72°
ENE
87°
E
99°
E
113°
ESE
122°
ESE
142°
SE
162°
SSE
156°
SSE
170°
S
180°
S
187°
S
201°
SSW
203°
SSW
216°
SW
226°
SW
234°
SW
242°
WSW
246°
WSW
245°
WSW
236°
SW
268°
W
323°
NW
349°
N

N
356°
N
357°
N

N
12°
NNE

N
12°
NNE
13°
NNE
37°
NE
59°
ENE
58°
ENE
36°
NE
28°
NNE
19°
NNE

N

N
357°
N
355°
N
353°
N
352°
N
353°
N
348°
NNW
345°
NNW
339°
NNW

Daily Forecast

Date High Low Precip. Humidity
Today
Jan 29

Rain
45 °F
25 °F
70%
77%
Monday
Jan 30

Snow
39 °F
27 °F
89%
73%
Tuesday
Jan 31

Clouds
26 °F
13 °F
54%
53%
Wednesday
Feb 1

Clear
23 °F
12 °F
0%
54%
Thursday
Feb 2

Snow
33 °F
22 °F
34%
66%
Friday
Feb 3

Clouds
25 °F
-7 °F
0%
63%
Saturday
Feb 4

Clear
6 °F
-11 °F
3%
63%
Sunday
Feb 5

Snow
40 °F
5 °F
29%
65%
Monday
Feb 6

Rain
43 °F
35 °F
100%
98%
Tuesday
Feb 7

Rain
36 °F
31 °F
100%
63%
Wednesday
Feb 8

Rain
45 °F
34 °F
72%
82%
Thursday
Feb 9

Clear
34 °F
15 °F
53%
41%
Friday
Feb 10

Snow
23 °F
14 °F
100%
53%
Saturday
Feb 11

Snow
27 °F
23 °F
100%
95%
Sunday
Feb 12

Clear
21 °F
6 °F
11%
75%
Monday
Feb 13

Clouds
25 °F
3 °F
0%
70%

Temperature 8-14 Day Outlook



Precipitation 8-14 Day Outlook




Quick Links
Searsport News
Searsport Photos
Searsport Videos




About Us
Contact Us
Site Map
Search Site
Advertise With Us
   
Searsport.USCoast.info
THE SEARSPORT WEBSITE

Copyright 2023, Coastal Town
Privacy    |    Legal